sat.trackr.live / text

‹ back to catalog

STARLINK-32901

NORAD 62895 · 2025-024S

PAYLOAD ACTIVE UNKNOWN

§ Identity

Operator
Country
US
Launch date
2025-02-04
Launch site
AFETR
Launch vehicle
Mass (kg)
RCS (m²)

Purposes: comms

External: N2YO · Heavens-Above · Gunter

§ Orbital elements

Epoch: 2026-05-24T15:29:33.763488Z

Period
94.27 min
Inclination
43.0006°
Eccentricity
0.0001389
Mean motion
15.27583682 rev/d
Perigee alt
482.1 km
Apogee alt
484.0 km
Semi-major
6,861.2 km
B*
4.9450e-4
RAAN
256.2982°
Arg perigee
270.0006°
Mean anomaly
90.0687°
Rev number
7,388

§ Raw data

STARLINK-329011 62895U 25024S   26144.64552967  .00013372  00000+0  49450-3 0  99942 62895  43.0006 256.2982 0001389 270.0006  90.0687 15.27583682 73888

JSON: /api/v1/satellites/62895 · /tle

For live sub-satellite position, see the globe view (requires WebGL).

§ Visibility from observer

Set your observer location to see the next 7 days of passes ≥ 10°. The values pass through the URL so the page stays shareable.

No JS? Fill the form by hand. The geolocation button needs JavaScript.